Location: Reuden
(51.7725°N, 12.5948°E)
Time: 04:06:17
(UTC+00:00)

Daily predictions for brighter satellites

Satellite Brightness Start Highest point End
(mag) Time Altitude Azimuth Time Altitude Azimuth Time Altitude Azimuth
CZ-4C R/B 3.7 00:06:34 33° NNW 00:07:16 33° NNW 00:13:22 10° NE
USA 234 3.6 00:01:13 10° E 00:07:37 60° N 00:07:48 60° N
Cosmos 2369 Rocket 3.7 00:10:56 32° NNW 00:10:56 32° NNW 00:14:46 10° NNE
Cosmos 2366 rocket 4.5 00:26:16 10° N 00:31:51 57° NE 00:31:51 57° NE
Cosmos 2218 Rocket 4.4 00:26:31 10° N 00:32:13 60° NE 00:32:13 60° NE
Gbstr 26 Del rocket 4.4 00:36:05 80° E 00:36:05 80° E 00:43:30 10° E
ADEOS II 3.7 00:40:17 10° NE 00:44:28 28° E 00:44:28 28° E
BREEZE-M DEB (TANK) 4.5 00:54:40 76° SSE 00:54:40 76° SSE 01:14:19 10° E
Cosmos 2227 Rocket 3.7 00:51:32 10° NNW 00:54:07 28° NNW 00:54:07 28° NNW
Cosmos 2181 Rocket 4.1 00:58:47 70° NE 00:58:47 70° NE 01:04:20 10° NNE
USA 267 4.2 01:07:06 10° ENE 01:12:59 34° SE 01:13:06 34° SE
SL-16 R/B 3.3 01:15:10 40° NW 01:15:10 40° NW 01:19:16 10° NNW
SJ 16-02 3.9 01:16:11 10° N 01:19:29 20° NE 01:22:46 10° E
CZ-2D R/B 2.5 01:14:32 10° NNE 01:18:48 57° N 01:18:48 57° N
ATLAS 2AS CENTAUR R/B 4.2 01:13:40 10° NW 01:20:53 38° NNE 01:27:39 10° E
NOSS 2-2 (D) 4.3 01:22:27 82° NNE 01:22:30 82° NE 01:29:50 10° SE
Cosmos 1943 Rocket 4.4 01:21:05 13° NW 01:23:00 15° NNW 01:26:03 10° N
Resurs 1-4 Rocket 2.6 01:21:42 10° N 01:25:56 54° NNW 01:25:56 54° NNW
Lacrosse 5 3.0 01:29:27 35° ESE 01:29:27 35° ESE 01:33:10 10° ENE
ATLAS 5 CENTAUR R/B 2.7 01:30:41 42° N 01:30:41 42° N 01:34:26 10° NE
Cosmos 2369 4.5 01:29:32 42° SE 01:30:06 43° ESE 01:35:30 10° NE
NPP 3.8 01:25:31 10° NNE 01:30:13 65° NNW 01:30:13 65° NNW
SL-08 R/B 3.7 01:37:45 60° NE 01:37:45 60° NE 01:41:57 10° N
Cosmos 2297 Rocket 4.3 01:38:30 10° NW 01:39:21 14° NW 01:39:21 14° NW
Cosmos 1818 3.7 01:44:09 63° NNW 01:44:09 63° NNW 01:49:27 10° NE
IRS-P3 4.4 01:44:53 10° NNE 01:50:12 64° ESE 01:51:04 55° SSE
USA 234 3.1 01:43:56 10° ESE 01:50:30 87° SSW 01:55:07 21° WNW
AQUA 4.4 01:45:48 10° N 01:49:34 49° NNW 01:49:34 49° NNW
Timation 1 Rocket 4.3 01:45:01 10° NNW 01:51:04 87° NE 01:57:05 10° SSE
Cosmos 1470 Rocket 4.0 01:47:04 10° N 01:50:50 60° NNE 01:50:50 60° NNE
Cosmos 1992 Rocket 4.3 01:54:52 53° NW 01:54:52 53° NW 01:59:40 10° NNE
Cosmos 1777 Rocket 4.4 01:49:37 10° NNW 01:53:37 52° NW 01:53:37 52° NW
Cosmos 2369 Rocket 4.5 01:52:43 11° NW 01:55:18 14° NNW 01:58:15 10° N
CZ-4C R/B 4.2 01:52:00 10° NW 01:57:34 32° NNE 02:04:06 10° ENE
Cosmos 1821 Rocket 3.8 01:52:11 10° NNW 01:58:31 80° W 02:00:05 53° S
CZ-4B R/B 3.4 01:53:37 10° NNE 01:58:42 78° WNW 01:58:43 78° WNW
Cosmos 1697 Rocket 2.6 02:01:35 64° S 02:02:25 79° ESE 02:08:04 10° NNE
Cosmos 972 Rocket 3.9 02:05:43 64° SSE 02:06:17 72° ESE 02:11:15 10° NNE
NOSS 2-2 (C) 4.4 02:06:12 53° W 02:07:18 61° SW 02:14:42 10° SSE
Cosmos 1980 Rocket 2.8 02:05:36 36° SSE 02:07:31 51° ESE 02:13:00 10° NE
Cosmos 1934 Rocket 4.0 02:03:49 10° N 02:09:55 79° E 02:15:16 14° SSE
SL-24 R/B 4.4 02:08:57 52° SSE 02:10:09 89° E 02:15:42 10° NNW
Cosmos 2263 Rocket 2.5 02:05:30 10° NNW 02:11:08 65° NE 02:16:46 10° SE
Cosmos 1933 3.9 02:13:42 50° NNW 02:13:42 50° NNW 02:16:55 10° N
Meteor 1-26 Rocket 4.2 02:11:25 43° S 02:13:11 73° E 02:18:37 10° NNE
Cosmos 1515 Rocket 3.8 02:12:56 55° SE 02:13:40 66° E 02:18:05 10° NNE
Meteor 1-25 Rocket 4.2 02:08:19 10° NNW 02:14:05 63° W 02:14:52 57° SW
Gbstr 26 Del rocket 4.4 02:18:38 29° W 02:23:13 74° SSW 02:30:43 10° ESE
SL-16 R/B 4.3 02:19:26 10° SSE 02:23:46 23° ESE 02:28:08 10° NE
Cosmos 1328 Rocket 3.6 02:24:02 63° WNW 02:24:02 63° WNW 02:28:22 10° N
ADEOS II 2.2 02:19:39 10° N 02:24:46 53° WNW 02:25:24 50° W
Celestis-02/Orion 38 4.4 02:20:08 10° SSE 02:25:22 73° WSW 02:30:32 10° NNW
CZ-3B R/B 1.8 02:25:23 79° SW 02:25:37 88° SE 02:33:36 10° ENE
Cosmos 1500 3.9 02:22:00 10° N 02:25:47 53° ENE 02:28:34 17° SSE
Cosmos 1151 Rocket 3.3 02:26:32 53° NW 02:26:32 53° NW 02:30:29 10° N
USA 305 2.9 02:27:21 63° SSE 02:27:31 64° SSE 02:31:44 10° ENE
Cosmos 1933 Rocket 3.4 02:24:20 10° NNW 02:28:42 72° W 02:28:52 71° WSW
Cosmos 1812 4.4 02:26:12 15° SSE 02:28:50 32° E 02:32:18 10° NNE
Nadezhda 3 Rocket 3.9 02:26:57 43° SW 02:28:55 66° WNW 02:35:04 10° N
Cosmos 2227 4.1 02:23:37 10° NNW 02:29:20 87° ENE 02:34:58 10° SSE
ARIANE 5 R/B 2.4 02:24:35 10° NNE 02:29:44 86° WNW 02:31:22 45° SSW
USA 306 2.9 02:31:23 64° S 02:31:42 67° SSE 02:35:56 10° ENE
Cosmos 1656 4.2 02:32:28 37° WNW 02:33:34 42° NW 02:38:51 10° NNE
IDEFIX/ARIANE 42P 2.6 02:28:52 10° NNE 02:34:11 83° ESE 02:36:51 30° S
IRS-1D 4.1 02:29:36 10° N 02:34:37 42° WNW 02:35:24 39° W
CZ-4C R/B 3.4 02:32:38 22° SSE 02:34:49 64° ENE 02:38:21 10° N
Cosmos 1605 Rocket 4.1 02:30:09 10° N 02:36:35 82° E 02:43:01 10° SSE
Cosmos 1535 Rocket 4.4 02:31:36 10° NNW 02:37:58 73° W 02:44:20 10° S
Meteor 1-14 Rocket 4.1 02:32:37 10° NNW 02:38:13 69° W 02:42:39 16° S
ASTEX 1 3.3 02:34:05 10° N 02:39:06 80° W 02:41:21 34° SSW
CZ-2C R/B 4.0 02:34:47 10° NNE 02:39:29 35° E 02:44:13 10° SSE
Cosmos 2228 Rocket 3.3 02:39:36 25° S 02:42:05 67° E 02:46:29 10° NNE
Meteor 1-5 Rocket 4.2 02:37:52 10° N 02:43:13 79° ENE 02:48:37 10° SSE
CZ-2D R/B 3.4 02:42:44 10° NNE 02:46:57 77° WNW 02:48:18 43° SSW
Cosmos 1869 Rocket 3.6 02:43:44 10° N 02:48:07 78° E 02:52:27 10° SSE
NOSS 3-4 (A) 4.1 02:42:12 10° NW 02:48:58 68° NE 02:56:30 10° ESE
NOSS 3-4 (C) 4.1 02:42:18 10° NW 02:49:04 68° NE 02:56:36 10° ESE
IRS-1C 4.4 02:45:51 10° N 02:51:00 50° WNW 02:52:48 35° WSW
USA 267 3.2 02:49:58 10° ENE 02:56:34 85° SSE 03:00:27 27° WSW
Cosmos 1238 Rocket 4.1 02:51:24 10° NNW 02:57:52 56° W 03:03:52 10° SSW
CZ-2C R/B 2.6 02:54:34 10° NNE 02:58:21 89° ESE 03:00:12 29° SSW
SJ 16-02 1.2 02:54:09 10° NNW 02:58:31 67° WSW 03:02:53 10° SSE
CZ-2D R/B 3.8 02:55:51 10° NNW 02:59:07 17° NW 03:00:07 16° WNW
USA 307 2.8 02:57:59 43° WSW 02:59:20 86° SSE 03:03:37 10° ENE
Cosmos 1782 3.1 02:59:09 42° W 02:59:43 45° WNW 03:03:38 10° N
NOSS 3-3 (A) 4.3 02:56:41 20° SSW 03:00:43 61° SE 03:07:16 10° NE
NOSS 3-3 (C) 4.3 02:56:50 20° SSW 03:00:50 61° SE 03:07:20 10° NE
Cosmos 44 3.1 02:59:37 33° SSW 03:01:37 82° SE 03:06:22 10° NE
PSLV R/B 4.3 02:57:31 10° NNE 03:01:39 50° E 03:05:43 10° S
USA 308 2.8 03:01:02 40° WSW 03:02:32 88° SSE 03:06:49 10° ENE
Meteor 1-4 Rocket 3.3 02:59:37 13° S 03:02:33 49° E 03:05:59 10° NNE
Cosmos 389 Rocket 2.7 03:02:26 46° W 03:02:48 49° WNW 03:06:19 10° N
PAYLOAD A 4.3 02:59:18 10° NNE 03:03:58 58° E 03:08:35 10° S
USA 276 2.1 03:04:24 56° SW 03:04:49 64° S 03:08:01 10° E
Cosmos 2278 3.8 03:02:25 28° SW 03:05:25 65° NW 03:11:08 10° NNE
Resurs 1-4 Rocket 3.9 03:03:03 10° NNW 03:05:53 15° NW 03:07:01 14° WNW
Cosmos 990 Rocket 3.9 03:01:33 10° NNW 03:06:46 80° WSW 03:11:58 10° SSE
ATLAS CENTAUR R/B 3.7 02:57:22 10° WNW 03:10:03 65° NNE 03:14:43 10° E
H-2A R/B 2.1 03:05:45 10° S 03:10:05 59° WSW 03:14:32 10° NNW
Lacrosse 5 1.9 03:08:39 29° WSW 03:11:15 72° NNW 03:16:21 10° ENE
ERBS 3.5 03:11:03 23° S 03:12:32 35° SE 03:15:38 10° ENE
Cosmos 2100 Rocket 4.5 03:06:35 10° N 03:12:57 66° ENE 03:19:18 10° SSE
ATLAS 2AS CENTAUR R/B 3.1 03:05:19 10° NW 03:13:01 75° NE 03:20:05 10° SE
Cosmos 2369 4.3 03:11:30 26° WSW 03:14:20 43° NW 03:19:49 10° NNE
ATLAS 5 CENTAUR R/B 3.6 03:12:12 13° WNW 03:15:24 23° N 03:19:36 10° NE
Cosmos 1727 Rocket 4.2 03:09:12 10° S 03:15:31 77° E 03:21:52 10° NNE
Meteor 1-11 Rocket 3.7 03:15:16 10° NNW 03:21:06 81° W 03:26:47 10° S
Cosmos 1339 Rocket 4.5 03:15:38 10° SSW 03:21:52 64° WNW 03:28:02 10° N
Landsat 5 3.9 03:18:27 10° S 03:22:47 45° W 03:27:05 10° NNW
ALOS 4.0 03:18:35 10° NNE 03:22:50 34° E 03:27:05 10° SSE
GENESIS II 4.4 03:21:04 20° SSW 03:23:46 71° SE 03:27:49 10° NE
ADEOS Rocket 3.1 03:17:11 10° SSE 03:23:55 86° WSW 03:30:00 10° NNW
CZ-4B R/B 1.7 03:21:43 10° SSE 03:24:52 66° ENE 03:28:08 10° N
Cosmos 1459 Rocket 4.1 03:22:50 10° N 03:28:59 77° ENE 03:35:02 10° SSE
MSX 4.0 03:26:45 10° N 03:32:24 54° WNW 03:37:58 10° SW
ERS-2 2.2 03:29:19 10° S 03:32:54 51° WSW 03:36:30 10° NNW
USA 234 3.8 03:28:11 10° SSE 03:34:04 35° SW 03:39:58 10° WNW
Cosmos 1484 Rocket 4.2 03:31:49 10° NNE 03:35:37 42° E 03:39:26 10° S
Meteor 1-27 Rocket 4.0 03:30:31 10° S 03:36:27 80° E 03:42:22 10° NNE
COSMO-SKYMED 1 4.1 03:32:29 10° SE 03:36:33 40° ENE 03:40:39 10° N
Cosmos 1689 Rocket 3.7 03:36:08 10° SE 03:38:56 38° ENE 03:41:45 10° N
Cosmos 1536 2.8 03:37:07 10° NNW 03:41:12 69° W 03:45:14 10° S
Cosmos 2360 Rocket 3.6 03:36:18 10° S 03:41:31 39° ESE 03:46:45 10° NE
Cosmos 1898 Rocket 3.7 03:36:37 10° NW 03:41:39 48° WSW 03:46:41 10° S
X-37B 2.4 03:42:02 16° SW 03:42:58 18° SSW 03:45:13 10° SSE
Cosmos 1697 Rocket 3.9 03:43:20 14° W 03:47:01 27° NW 03:51:47 10° NNE
Meteor 1-31 Rocket 4.0 03:43:27 10° NNE 03:47:08 43° E 03:50:48 10° S
CZ-4C R/B 3.5 03:40:49 10° NW 03:47:28 57° NE 03:55:19 10° ESE
FENGYUN 3A 4.4 03:42:21 10° NNE 03:47:40 58° E 03:53:00 10° S
deb Chang Zheng 4 3.9 03:45:03 10° NNE 03:49:22 70° ESE 03:53:37 10° S
Cosmos 372 Rocket 4.1 03:44:22 10° NNW 03:49:34 81° ENE 03:54:41 10° SSE
Cosmos 1980 Rocket 2.9 03:47:24 14° WSW 03:51:44 38° NW 03:57:01 10° NNE
Cosmos 1437 Rocket 4.3 03:51:05 10° SSE 03:54:36 38° E 03:58:12 10° NNE
Cosmos 2263 Rocket 3.1 03:50:01 10° NW 03:54:40 27° WSW 03:59:18 10° SSW
Cosmos 2278 Rocket 4.2 03:49:51 10° NNW 03:54:45 29° NE 03:59:38 10° E
Cosmos 1544 4.1 03:52:13 10° N 03:55:45 49° ENE 03:59:14 10° SSE
Cosmos 921 Rocket 3.6 03:52:49 13° SW 03:56:13 35° WNW 04:00:07 10° N
Cosmos 1844 3.9 03:51:08 10° NNW 03:56:45 76° ENE 04:02:19 10° SE
Cosmos 2322 Rocket 2.3 03:52:28 10° SSW 03:58:09 84° ESE 04:03:54 10° NNE
USA 32 4.3 03:53:54 10° NNW 03:58:56 47° W 04:03:56 10° SSW
Cosmos 1844 Rocket 2.7 03:55:28 10° NNW 04:01:08 87° WSW 04:06:49 10° SSE
Cosmos 2173 Rocket 4.0 03:55:24 10° NNW 04:01:40 66° W 04:07:56 10° S
ADEOS II 4.1 04:01:29 10° NNW 04:03:22 12° NW 04:05:15 10° WNW
Cosmos 1812 3.8 04:01:25 10° SW 04:04:40 26° WNW 04:07:57 10° N
COSMOS 2455 4.3 03:59:03 10° NNW 04:04:41 38° NE 04:10:17 10° ESE
Cosmos 1707 Rocket 3.7 04:00:47 10° SSW 04:04:59 50° WNW 04:09:16 10° N
Cosmos 1666 3.7 04:03:34 10° NNW 04:06:48 26° W 04:09:59 10° SSW
SL-16 R/B 2.2 04:01:40 10° SW 04:07:20 74° WNW 04:13:02 10° NNE
Cosmos 1937 Rocket 3.9 04:02:41 10° NW 04:07:28 40° WSW 04:12:13 10° S
USA 305 3.1 04:03:31 11° W 04:07:37 66° N 04:11:51 10° ENE
ARIANE 5 R/B 4.1 04:04:50 10° NNW 04:08:09 18° NW 04:11:24 10° W
ADEOS 3.6 04:03:57 10° NNE 04:09:12 81° WNW 04:14:25 10° SSW
Cosmos 2150 Rocket 4.3 04:05:04 10° NNW 04:10:34 79° ENE 04:16:00 10° SSE
USA 306 3.1 04:07:34 10° W 04:11:49 65° N 04:16:04 10° ENE
IDEFIX/ARIANE 42P 4.0 04:09:23 10° N 04:13:11 21° NW 04:16:59 10° WSW
Cosmos 1125 Rocket 4.2 04:08:58 10° NNW 04:14:14 61° ENE 04:19:27 10° SE
CZ-2C R/B 3.0 04:12:59 10° N 04:17:45 41° WNW 04:22:36 10° SW
Cosmos 1814 Rocket 4.3 04:13:19 10° SSW 04:18:31 75° ESE 04:23:49 10° NNE
Cosmos 1733 Rocket 3.5 04:14:50 10° NNW 04:18:54 40° W 04:22:56 10° SSW
Cosmos 841 Rocket 3.6 04:15:01 10° SSW 04:20:15 88° WNW 04:25:34 10° NNE
Cosmos 2061 Rocket 4.1 04:14:26 10° NNW 04:20:51 70° W 04:27:14 10° S
SAR-Lupe-4 4.3 04:18:40 10° SSW 04:21:55 32° W 04:25:12 10° NNW
SKYMED 2 3.5 04:20:11 10° S 04:24:31 74° WSW 04:28:54 10° NNW
Cosmos 44 Rocket 3.8 04:20:23 10° SSW 04:25:04 64° SE 04:29:56 10° NE
